Location: Central Coast NSW, Australia
(33.2407°S, 151.4316°E)
Time: 16:35:21
(UTC+11:00)

Hubble Space Telescope - Visible Passes

Search period start: 16 November 2018 00:00
Search period end: 26 November 2018 00:00
Orbit: 537 x 540 km, 28.5° (Epoch: 15 November)

Date Brightness Start Highest point End Pass type
(mag) Time Alt. Az. Time Alt. Az. Time Alt. Az.
16 Nov 3.6 02:54:46 11° ENE 02:54:46 11° ENE 02:54:57 10° ENE visible
16 Nov 1.3 04:30:07 25° WNW 04:32:03 42° N 04:36:00 10° ENE visible
17 Nov 1.3 04:20:18 31° NW 04:21:36 40° N 04:25:31 10° ENE visible
18 Nov 1.3 04:10:35 36° NNW 04:11:08 38° N 04:15:01 10° ENE visible
19 Nov 1.6 04:01:00 34° N 04:01:00 34° N 04:04:29 10° NE visible
20 Nov 2.2 03:51:35 25° NNE 03:51:35 25° NNE 03:53:54 10° NE visible
21 Nov 3.0 03:42:22 15° NE 03:42:22 15° NE 03:43:16 10° NE visible
24 Nov 2.8 20:12:58 10° N 20:14:32 12° NNE 20:16:05 10° NE visible
24 Nov 3.2 21:51:31 10° NW 21:52:01 13° NW 21:52:01 13° NW visible
25 Nov 2.3 21:40:56 10° NW 21:42:55 23° NW 21:42:55 23° NW visible
